Wind_Speed
2 4 4 4 4 5 8 9 9 8 8 8 7 7 7 7 8 8 9 9 10 10 8 7 6 2 1 2 4 14 13 10 9 9 9 9 9 8 7 7 9 11 12
1 5 7 8 7 7 6 8 10 10 9 9 10 10 10 10 9 9 9 9 9 8 9 8 6 4 1 5 9 11 11 10 9 7 7 9 9 8 8 8 10 11 12
1 7 7 9 9 9 8 9 9 10 11 10 11 12 12 11 11 11 11 10 10 10 9 9 8 6 4 6 11 12 9 9 9 7 7 9 10 9 8 8 8 11 12
6 7 7 7 8 10 11 12 11 11 11 13 13 12 13 14 14 13 13 12 13 12 11 10 10 9 7 6 9 12 12 12 12 12 10 11 11 10 8 7 8 9 11
7 7 8 8 8 9 10 12 12 12 13 14 15 16 16 16 16 16 16 15 15 15 14 12 12 12 11 9 10 14 14 15 15 15 14 12 12 11 10 9 8 9 10
8 7 7 9 9 10 11 11 12 13 13 13 15 18 19 20 19 17 16 16 16 17 17 15 13 14 15 13 12 14 16 17 18 17 16 17 16 14 13 11 10 9 9
6 6 7 8 10 12 14 15 15 15 16 16 16 17 18 20 22 22 21 19 19 18 17 18 17 15 16 18 17 16 17 18 19 20 21 19 19 19 17 16 14 12 11
5 6 7 8 9 10 11 12 13 15 17 18 19 20 20 20 20 21 22 24 23 22 22 20 19 20 18 18 21 21 20 20 21 22 23 22 21 22 21 20 18 17 16
6 7 8 10 11 12 13 14 14 14 15 16 16 18 19 21 23 24 24 25 25 25 26 26 25 23 22 22 21 22 23 23 23 24 24 25 25 24 23 23 24 22 21
9 9 10 12 13 15 16 17 17 17 18 18 19 19 20 20 21 22 25 27 27 27 27 27 29 28 28 26 25 24 25 26 27 26 27 28 27 27 26 26 26 26 26
12 12 13 14 16 17 18 18 20 22 22 22 21 23 23 24 23 23 23 24 24 27 29 30 30 30 32 31 29 28 29 28 29 29 30 29 30 31 30 29 28 28 28
16 17 18 18 20 21 22 21 22 23 24 24 24 27 27 27 27 27 27 27 27 26 27 30 33 33 33 33 34 34 32 31 31 32 32 33 32 32 32 32 32 31 31
19 20 21 22 23 24 25 26 26 26 26 26 26 29 30 30 30 31 31 32 32 31 30 29 30 34 37 35 34 36 37 35 34 34 34 34 34 34 34 33 33 34 33
23 23 24 26 27 29 30 30 30 31 30 29 30 31 32 33 33 33 33 33 33 34 35 35 33 33 34 39 40 37 37 39 39 36 37 37 35 36 36 36 34 33 34
26 28 30 32 33 34 36 36 37 37 37 37 37 36 37 37 37 36 36 36 36 37 37 37 38 39 37 37 40 43 42 40 39 41 39 39 39 38 36 38 37 36 34
30 32 34 35 37 39 40 42 43 43 43 43 43 43 43 43 43 42 42 41 41 41 41 41 41 40 41 41 40 42 45 46 44 41 41 42 41 41 40 38 39 40 39
36 38 40 42 43 44 45 46 47 48 48 49 49 48 48 48 49 49 48 48 46 44 44 43 43 43 43 43 45 44 44 47 48 47 43 40 42 43 43 43 41 40 38
42 43 45 47 49 50 51 52 52 52 53 53 54 54 53 53 53 53 53 52 51 50 49 48 47 46 46 46 46 48 47 47 48 50 49 46 45 45 45 47 42 47 46
47 48 50 51 53 55 57 58 58 58 58 58 58 59 59 58 58 57 57 56 55 55 54 53 52 51 50 50 49 49 51 51 50 50 52 51 50 49 47 45 45 47 47
51 53 55 56 57 58 60 61 63 64 64 64 64 64 64 64 64 63 62 62 61 60 59 59 57 56 55 54 53 52 51 51 52 52 51 52 53 52 51 51 49 48 47
58 60 60 61 61 62 63 64 65 66 67 68 70 70 70 69 69 69 68 68 67 67 66 64 63 62 61 60 58 57 56 53 51 52 53 53 53 52 53 53 53 53 51
59 60 61 62 64 65 66 67 68 69 70 71 72 74 74 73 73 73 73 72 71 71 71 70 69 67 66 65 64 62 60 60 57 54 54 55 56 55 53 53 53 52 51
63 64 66 67 67 68 69 70 71 72 72 72 73 75 76 77 76 76 76 76 76 76 75 75 74 73 71 70 70 69 67 64 63 61 58 56 57 58 57 56 53 53 51
62 65 66 67 68 69 70 71 72 72 72 74 75 76 77 79 79 79 79 78 78 78 79 79 79 79 80 78 76 75 74 72 69 67 65 62 60 59 59 59 58 57 56
61 62 63 64 66 68 69 70 71 72 74 73 72 73 73 74 75 77 78 78 78 80 81 82 82 81 81 81 81 81 78 79 77 75 70 68 67 64 62 61 59 57 56
59 61 62 62 64 65 66 68 69 70 71 71 72 73 74 74 75 75 76 77 79 81 81 82 83 83 84 84 84 84 87 83 82 82 79 75 71 70 68 67 65 62 60
Wind_Direction
171 213 228 230 230 234 242 251 258 260 255 254 257 258 257 258 261 268 276 276 277 279 277 278 310 332 17 152 118 161 158 165 166 168 177 165 167 165 161 157 161 150 144
273 258 249 250 244 238 236 249 256 263 266 266 262 263 265 271 274 274 277 281 279 274 277 272 288 298 229 160 154 154 171 173 170 175 177 173 172 170 173 165 164 158 158
109 285 277 269 271 271 271 272 273 272 268 261 258 261 265 264 265 270 279 287 288 281 273 268 270 279 259 195 177 180 187 187 182 176 187 181 179 182 181 167 166 162 168
303 297 297 298 288 278 276 275 273 271 277 280 277 271 265 264 265 269 270 278 285 289 283 267 263 271 260 228 203 200 201 201 198 198 196 195 187 187 188 179 166 175 182
334 311 299 294 288 281 276 274 272 269 263 264 269 270 271 267 264 264 268 269 268 276 282 282 264 264 267 253 225 212 220 212 209 209 205 205 209 195 197 192 183 180 190
282 286 283 281 282 279 275 274 273 274 271 266 263 266 267 270 270 267 265 269 270 265 266 271 271 258 261 261 252 235 229 224 220 218 217 218 213 210 206 209 200 191 195
300 298 293 284 274 269 270 269 270 272 273 270 266 264 265 265 268 271 270 269 270 272 268 265 266 262 252 254 258 250 242 238 230 225 223 221 225 222 216 216 216 211 209
299 298 293 284 279 276 275 274 269 268 269 270 270 269 267 267 267 269 271 270 270 268 270 269 265 261 257 251 248 252 247 241 239 235 232 229 230 233 229 226 226 222 222
266 273 275 278 281 281 275 273 275 275 271 268 268 269 269 269 267 264 263 264 265 268 269 269 266 264 260 254 252 247 247 244 239 239 239 236 233 235 235 237 234 232 229
279 277 277 275 273 273 272 273 270 265 263 265 266 267 267 267 268 270 267 264 263 262 263 265 266 264 260 259 254 252 249 246 242 238 237 239 239 238 238 238 239 238 238
277 276 275 277 279 276 274 272 272 272 272 270 271 270 272 270 268 265 264 265 266 264 262 259 260 262 262 259 256 254 251 248 246 241 238 236 237 238 239 239 241 243 241
281 280 279 279 278 275 273 271 270 271 272 273 272 271 268 266 270 273 273 270 266 262 263 263 261 258 257 258 257 255 255 251 249 246 242 239 236 236 238 237 239 239 241
284 283 281 279 276 275 276 276 275 272 271 270 270 272 273 272 268 263 262 266 270 271 269 263 262 262 261 258 255 253 252 253 252 250 247 244 242 240 238 239 237 238 239
279 278 276 275 276 276 276 277 277 276 275 271 268 266 267 267 268 270 272 270 268 267 266 268 266 263 260 260 258 256 252 248 247 248 249 249 247 246 244 240 239 240 240
283 281 279 278 277 277 276 276 276 276 275 274 273 271 268 268 266 265 265 265 265 267 267 265 263 265 264 261 258 255 256 254 248 245 244 246 248 249 247 247 245 243 241
286 284 282 280 278 278 277 275 274 273 273 272 272 272 272 272 271 268 266 265 265 264 263 264 264 261 262 262 261 258 254 253 253 251 245 243 241 242 245 247 245 243 244
285 285 285 284 282 279 277 276 274 273 272 271 271 269 269 269 269 270 269 268 265 263 263 262 262 263 260 259 261 258 257 253 252 250 249 245 246 241 239 239 242 247 249
282 281 281 281 280 279 279 278 276 275 274 273 272 270 269 268 268 268 267 267 267 266 264 263 262 259 259 259 257 258 257 256 252 251 249 246 245 247 243 235 241 243 244
287 286 284 282 280 278 277 276 275 274 273 272 272 271 271 269 268 268 267 267 266 265 264 263 262 261 259 257 257 257 257 254 253 252 249 246 244 245 246 247 241 243 239
290 288 286 284 282 280 278 276 275 274 273 272 271 270 269 269 269 268 268 267 266 264 264 263 262 260 259 258 257 255 254 255 254 253 252 251 247 243 243 244 244 243 246
285 284 282 281 279 279 278 276 275 274 274 273 271 270 270 269 268 268 267 266 265 264 263 261 261 260 259 257 255 255 254 252 252 252 251 250 249 246 241 242 243 243 242
282 281 280 280 279 278 278 277 276 275 274 273 272 272 271 269 268 267 267 266 265 264 263 262 261 259 258 258 256 253 252 253 251 250 250 250 248 247 244 242 240 242 242
284 283 282 281 280 280 280 280 279 278 275 274 273 272 271 271 269 268 267 266 265 263 262 261 260 260 259 258 257 255 252 250 251 251 248 249 250 247 245 244 241 239 239
284 282 283 283 283 282 281 279 278 277 275 275 275 274 273 272 271 270 269 267 266 264 262 261 259 259 258 256 258 256 254 251 249 247 249 247 245 248 248 244 243 241 240
286 286 287 286 284 283 282 280 279 278 277 275 274 273 272 271 271 271 270 269 267 266 265 264 263 261 259 257 254 255 255 253 251 248 245 247 245 243 244 246 242 241 239
297 295 292 290 287 285 283 282 280 279 278 277 276 275 274 273 271 270 269 269 269 268 267 266 264 262 261 259 256 253 251 252 252 250 247 244 245 244 243 242 241 239 240
Height
5857 5860 5860 5862 5863 5864 5864 5865 5866 5866 5866 5866 5867 5868 5869 5869 5868 5868 5867 5867 5866 5866 5866 5866 5865 5864 5863 5863 5862 5862 5864 5865 5867 5868 5869 5868 5869 5869 5869 5870 5870 5870 5871
5856 5859 5861 5862 5863 5863 5864 5864 5864 5865 5865 5866 5867 5867 5868 5868 5868 5867 5867 5866 5866 5866 5865 5865 5865 5865 5864 5864 5863 5864 5864 5866 5866 5868 5868 5869 5869 5870 5868 5869 5870 5871 5872
5856 5859 5860 5862 5862 5863 5863 5864 5864 5864 5865 5866 5866 5866 5866 5866 5866 5866 5866 5866 5866 5865 5865 5865 5865 5865 5864 5864 5864 5865 5865 5865 5867 5867 5868 5869 5869 5870 5869 5870 5870 5871 5872
5858 5859 5860 5860 5860 5861 5862 5862 5863 5863 5863 5863 5863 5863 5863 5863 5863 5863 5863 5864 5864 5864 5864 5865 5865 5864 5864 5864 5864 5865 5865 5866 5867 5867 5868 5868 5869 5869 5869 5870 5870 5871 5872
5858 5859 5858 5858 5858 5859 5859 5859 5859 5860 5861 5861 5860 5859 5859 5860 5860 5860 5860 5860 5861 5861 5861 5862 5864 5864 5864 5863 5864 5864 5864 5865 5866 5867 5867 5868 5869 5869 5869 5870 5870 5871 5872
5855 5856 5857 5857 5857 5857 5856 5856 5856 5857 5857 5858 5858 5858 5857 5857 5857 5857 5857 5856 5857 5857 5858 5858 5860 5861 5862 5862 5863 5863 5863 5863 5864 5866 5866 5867 5868 5868 5868 5869 5870 5870 5871
5854 5855 5855 5855 5854 5854 5854 5854 5854 5853 5854 5854 5854 5854 5854 5854 5855 5854 5854 5854 5854 5854 5854 5855 5856 5857 5858 5860 5861 5862 5862 5862 5862 5863 5864 5865 5866 5866 5867 5868 5868 5869 5870
5853 5854 5854 5853 5852 5852 5852 5851 5851 5850 5851 5851 5851 5850 5850 5849 5850 5850 5851 5850 5851 5851 5851 5851 5852 5853 5854 5855 5856 5857 5859 5860 5860 5860 5861 5861 5863 5863 5865 5865 5866 5867 5868
5852 5852 5852 5851 5851 5851 5849 5848 5849 5849 5848 5847 5846 5846 5845 5846 5846 5845 5845 5845 5846 5846 5847 5847 5848 5849 5849 5850 5852 5852 5854 5855 5856 5857 5858 5858 5859 5860 5861 5863 5864 5864 5865
5849 5849 5849 5848 5848 5847 5847 5847 5846 5845 5844 5844 5843 5842 5841 5841 5841 5841 5840 5840 5839 5840 5840 5841 5842 5843 5844 5845 5846 5848 5849 5849 5851 5852 5853 5853 5855 5855 5857 5858 5859 5861 5862
5845 5845 5844 5844 5844 5843 5843 5843 5843 5841 5841 5840 5840 5838 5838 5837 5836 5835 5835 5834 5835 5834 5834 5834 5835 5836 5837 5839 5840 5841 5842 5844 5845 5846 5847 5848 5849 5850 5851 5853 5854 5855 5857
5844 5843 5841 5840 5839 5839 5838 5838 5837 5836 5836 5836 5835 5833 5832 5832 5831 5830 5829 5828 5828 5828 5828 5829 5829 5829 5829 5831 5833 5835 5836 5837 5839 5840 5841 5842 5842 5844 5845 5847 5848 5850 5851
5840 5840 5838 5837 5835 5834 5833 5832 5831 5830 5829 5829 5829 5827 5827 5826 5825 5823 5823 5823 5822 5822 5822 5822 5822 5823 5823 5823 5825 5826 5828 5830 5832 5834 5835 5835 5837 5837 5838 5840 5842 5843 5845
5838 5836 5835 5834 5833 5831 5829 5827 5826 5825 5824 5823 5821 5820 5818 5817 5817 5817 5817 5816 5815 5815 5815 5815 5814 5815 5815 5816 5817 5817 5819 5821 5823 5826 5828 5829 5831 5831 5833 5833 5835 5836 5838
5833 5832 5830 5829 5827 5825 5823 5821 5820 5819 5818 5817 5815 5813 5811 5809 5808 5807 5807 5807 5807 5806 5806 5806 5806 5806 5807 5808 5808 5810 5811 5813 5814 5816 5819 5820 5824 5825 5826 5827 5829 5830 5832
5828 5827 5824 5822 5820 5818 5817 5814 5812 5810 5808 5808 5807 5805 5804 5803 5801 5799 5798 5798 5798 5798 5797 5796 5796 5797 5798 5798 5799 5800 5802 5804 5806 5807 5810 5811 5812 5815 5818 5819 5821 5822 5824
5822 5820 5818 5815 5813 5810 5807 5805 5803 5800 5798 5797 5796 5795 5794 5792 5791 5791 5790 5789 5788 5787 5787 5787 5787 5788 5788 5788 5789 5790 5791 5793 5795 5798 5799 5802 5803 5805 5806 5810 5812 5815 5817
5814 5812 5809 5806 5803 5800 5797 5794 5791 5789 5787 5785 5784 5782 5781 5780 5779 5779 5778 5777 5777 5776 5776 5776 5776 5776 5777 5777 5777 5779 5781 5782 5783 5786 5788 5791 5793 5794 5797 5799 5803 5805 5807
5804 5801 5798 5795 5791 5788 5785 5783 5779 5776 5774 5772 5770 5768 5767 5766 5766 5765 5764 5764 5764 5763 5763 5763 5763 5765 5765 5765 5766 5768 5769 5770 5771 5773 5776 5779 5781 5783 5786 5789 5792 5793 5796
5793 5789 5785 5782 5778 5775 5771 5767 5764 5761 5759 5757 5755 5753 5751 5750 5749 5749 5749 5748 5748 5749 5749 5749 5750 5750 5751 5752 5754 5755 5756 5758 5760 5762 5764 5766 5769 5772 5775 5777 5781 5784 5787
5780 5775 5770 5766 5762 5758 5755 5752 5748 5745 5742 5740 5739 5737 5735 5733 5731 5731 5731 5731 5731 5732 5732 5732 5734 5736 5736 5736 5739 5741 5743 5745 5746 5749 5751 5753 5756 5760 5763 5765 5768 5771 5775
5764 5760 5755 5751 5747 5742 5738 5735 5732 5728 5724 5722 5720 5717 5716 5715 5713 5712 5712 5711 5712 5713 5714 5714 5715 5718 5720 5720 5723 5725 5728 5730 5732 5734 5737 5739 5742 5746 5750 5754 5757 5759 5763
5750 5745 5740 5734 5728 5725 5722 5718 5714 5710 5706 5703 5700 5697 5695 5694 5692 5692 5691 5691 5691 5692 5693 5694 5695 5698 5702 5703 5704 5707 5710 5714 5717 5719 5722 5725 5729 5732 5736 5741 5745 5749 5752
5736 5729 5724 5718 5713 5708 5703 5698 5695 5691 5688 5683 5680 5677 5675 5672 5671 5669 5669 5668 5669 5670 5672 5672 5673 5676 5680 5685 5684 5686 5690 5695 5698 5704 5705 5710 5714 5719 5722 5726 5731 5735 5739
5718 5713 5709 5703 5696 5690 5684 5679 5675 5672 5667 5664 5660 5658 5656 5653 5649 5647 5644 5644 5644 5645 5647 5648 5650 5652 5655 5660 5664 5667 5670 5672 5678 5682 5690 5693 5696 5702 5706 5712 5717 5722 5726
5703 5698 5691 5686 5679 5672 5667 5662 5656 5652 5647 5643 5639 5637 5635 5633 5630 5628 5625 5623 5621 5620 5621 5622 5625 5627 5629 5633 5638 5644 5647 5651 5655 5658 5667 5674 5679 5684 5689 5695 5702 5707 5713